Weather History for Detroit Metro, MI

Change the Weather History Date:

Tuesday, January 21, 2014

  Actual Average Record
Temperature  
Mean Temperature 7 °F 25 °F  
Max Temperature 13 °F 32 °F 65 °F (1906)
Min Temperature 0 °F 19 °F -21 °F (1984)
Degree Days  
Heating Degree Days 58 40  
Month to date heating degree days 966 830  
Since 1 July heating degree days 3445 3127  
Cooling Degree Days 0 0  
Month to date cooling degree days 0 0  
Year to date cooling degree days 0 0  
Moisture  
Dew Point -2 °F    
Average Humidity 64    
Maximum Humidity 76    
Minimum Humidity 52    
Precipitation  
Precipitation T in 0.06 in 0.88 in (1959)
Month to date precipitation 2.35 1.37  
Year to date precipitation 2.35 1.37  
Snow  
Snow T in 0.40 in 6.00 in (1917)
Month to date snowfall 27.8 8.6  
Since 1 July snowfall 44.5 19.8  
Snow Depth 6.00 in    
Sea Level Pressure  
Sea Level Pressure 30.16 in    
Wind  
Wind Speed 9 mph (NNW)    
Max Wind Speed 18 mph    
Max Gust Speed 23 mph    
Visibility 9 miles    
Events Snow    
T = Trace of Precipitation, MM = Missing Value Source: NWS Daily Summary

Daily Weather History Graph

Daily Weather History Graph

Search for Another Location

Airport:

Trip Planner

Search our weather history database for the weather conditions in past years. The results will help you decide how hot, cold, wet, or windy it might be!

Date:

Astronomy

Jan. 21, 2014 Rise Set
Actual Time 7:56 AM EST 5:33 PM EST
Civil Twilight 7:25 AM EST 6:04 PM EST
Nautical Twilight 6:51 AM EST 6:38 PM EST
Astronomical Twilight 6:18 AM EST 7:11 PM EST
Moon 11:12 PM EST 10:18 AM EST
Length of Visible Light 10h 38m
Length of Day
9h 37m
Waning Gibbous, 75% of the Moon is Illuminated
Jan 21
Waning Gibbous
Jan 24
Last Quarter
Jan 30
New
Feb 6
First Quarter
Feb 14
Full

Hourly Weather History & Observations

Time (EST) Temp. Windchill Dew Point Humidity Pressure Visibility Wind Dir Wind Speed Gust Speed Precip Events Conditions
12:12 AM 12.2 °F -0.2 °F 6.8 °F 79% 30.05 in 2.5 mi North 9.2 mph - 0.00 in Snow Light Snow
12:45 AM 12.2 °F -2.5 °F 5.0 °F 73% 30.04 in 4.0 mi North 12.7 mph - 0.00 in Snow Light Snow
12:53 AM 12.0 °F -1.3 °F 5.0 °F 73% 30.07 in 4.0 mi North 10.4 mph - 0.00 in Snow Light Snow
1:42 AM 10.4 °F -5.4 °F 3.2 °F 73% 30.03 in 3.0 mi North 13.8 mph - 0.00 in Snow Light Snow
1:53 AM 10.9 °F -5.4 °F 3.0 °F 70% 30.06 in 3.0 mi North 15.0 mph - 0.00 in Snow Light Snow
2:25 AM 10.4 °F -6.0 °F -0.4 °F 62% 30.04 in 5.0 mi North 15.0 mph - 0.00 in Snow Light Snow
2:53 AM 9.0 °F -4.2 °F -2.9 °F 59% 30.09 in 6.0 mi North 9.2 mph - 0.00 in Snow Light Snow
3:53 AM 8.1 °F -7.0 °F -2.9 °F 61% 30.12 in 9.0 mi NNW 11.5 mph - 0.00 in   Overcast
4:53 AM 7.0 °F -7.5 °F -2.9 °F 64% 30.10 in 10.0 mi NNW 10.4 mph - N/A   Overcast
5:53 AM 6.1 °F -7.8 °F -2.9 °F 67% 30.11 in 10.0 mi NNW 9.2 mph - N/A   Overcast
6:53 AM 5.0 °F -10.0 °F -4.0 °F 66% 30.13 in 10.0 mi NNW 10.4 mph - N/A   Overcast
7:53 AM 3.9 °F -11.3 °F -4.0 °F 70% 30.16 in 10.0 mi NNW 10.4 mph - N/A   Mostly Cloudy
8:53 AM 5.0 °F -9.1 °F -2.9 °F 70% 30.18 in 10.0 mi North 9.2 mph - N/A   Mostly Cloudy
9:53 AM 6.1 °F -10.2 °F -2.9 °F 67% 30.19 in 10.0 mi North 12.7 mph - N/A   Mostly Cloudy
10:53 AM 8.1 °F -6.2 °F -2.0 °F 64% 30.20 in 10.0 mi NNW 10.4 mph - N/A   Scattered Clouds
11:53 AM 10.0 °F -5.2 °F -0.9 °F 61% 30.20 in 10.0 mi North 12.7 mph - N/A   Scattered Clouds
12:53 PM 10.0 °F -2.9 °F -0.0 °F 64% 30.19 in 10.0 mi NNE 9.2 mph - N/A   Mostly Cloudy
1:53 PM 12.0 °F 1.5 °F -0.9 °F 56% 30.17 in 10.0 mi NNW 6.9 mph - N/A   Mostly Cloudy
2:53 PM 10.9 °F -2.6 °F -0.9 °F 59% 30.17 in 10.0 mi NNW 10.4 mph - N/A   Mostly Cloudy
3:53 PM 10.9 °F -4.1 °F -2.0 °F 56% 30.19 in 10.0 mi North 12.7 mph - N/A   Mostly Cloudy
4:53 PM 10.0 °F -1.9 °F -4.0 °F 53% 30.20 in 10.0 mi NNW 8.1 mph - N/A   Mostly Cloudy
5:53 PM 8.1 °F -2.0 °F -5.1 °F 55% 30.22 in 10.0 mi NNW 5.8 mph - N/A   Scattered Clouds
6:53 PM 7.0 °F -4.5 °F -5.1 °F 58% 30.23 in 10.0 mi NNW 6.9 mph - N/A   Scattered Clouds
7:53 PM 5.0 °F -10.0 °F -7.1 °F 58% 30.24 in 10.0 mi NW 10.4 mph - N/A   Scattered Clouds
8:53 PM 3.0 °F -9.3 °F -8.0 °F 60% 30.24 in 10.0 mi NNW 6.9 mph - N/A   Partly Cloudy
9:53 PM 1.9 °F -7.6 °F -7.1 °F 66% 30.24 in 10.0 mi NNW 4.6 mph - N/A   Clear
10:53 PM 1.9 °F - -7.1 °F 66% 30.23 in 10.0 mi Calm Calm - N/A   Partly Cloudy
11:53 PM -0.0 °F -7.9 °F -7.1 °F 72% 30.24 in 10.0 mi WNW 3.5 mph - N/A   Partly Cloudy